Location: Gravenhurst
(44.9196°N, 79.3742°W)
Time: 14:26:07
(UTC-05:00)

N. Korean satellite - Pass Details

Date: 01 November 2019
Orbit: 456 x 506 km, 97.2° (Epoch: 18 November)

Event Time Altitude Azimuth Distance (km) Brightness Sun altitude
Rises 06:40:13 0° 21° (NNE) 2,601 10.5 -13.8°
Reaches altitude 10° 06:42:28 10° 32° (NNE) 1,718 9.7 -13.4°
Maximum altitude 06:45:49 32° 97° (E) 890 8.7 -12.8°
Drops below altitude 10° 06:49:09 10° 161° (SSE) 1,714 9.7 -12.2°
Sets 06:51:23 0° 172° (S) 2,595 10.5 -11.8°
